This demonstration page uses our WeatherBlox Daily Observations layout. Learn more.

39.92423, -83.80882

Hourly Observations for September 8, 2016

Temp ( °F °C ) Dew Point ( °F °C ) Humidity (%) Winds ( mph kmh ) Pressure ( in mb ) Visibility ( mi km ) Precip ( " mm )
12:56 am 00:56 Clear 72 22.2 68 20 87 87 SSW 6 9 30.01 1016 10 16.0934 0 0
1:56 am 01:56 Clear 72 22.2 67 19.4 84 84 SSW 5 7 30.01 1016 10 16.0934 0 0
2:56 am 02:56 Clear 71 21.7 67 19.4 87 87 SSW 5 7 30 1016 10 16.0934 0 0
3:56 am 03:56 Clear 72 22.2 68 20 87 87 SSW 5 7 29.98 1015 10 16.0934 0 0
4:56 am 04:56 Clear 72 22.2 68 20 87 87 SW 8 13 29.97 1015 10 16.0934 0 0
5:56 am 05:56 Clear 71 21.7 68 20 90 90 SW 7 11 29.97 1015 10 16.0934 0 0
6:56 am 06:56 Clear 71 21.7 68 20 90 90 SW 6 9 29.98 1015 10 16.0934 0 0
7:56 am 07:56 Sunny 71 21.7 68 20 90 90 SSW 7 11 29.99 1016 10 16.0934 0 0
8:56 am 08:56 Sunny 75 23.9 69 20.6 82 82 SSW 8 13 29.98 1015 10 16.0934 0 0
10:56 am 10:56 Sunny 80 26.7 72 22.2 76 76 WSW 13 20 29.96 1014 10 16.0934 0 0
11:56 am 11:56 Sunny 81 27.2 73 22.8 77 77 SW 13 20 29.95 1014 10 16.0934 0 0
12:56 pm 12:56 Mostly Cloudy 84 28.9 73 22.8 70 70 WSW 14 22 29.95 1014 10 16.0934 0 0
1:56 pm 13:56 Mostly Cloudy 84 28.9 74 23.3 72 72 WSW 14 22 29.93 1014 10 16.0934 0 0
2:56 pm 14:56 Mostly Cloudy 84 28.9 74 23.3 72 72 WSW 13 20 29.92 1013 10 16.0934 0 0
3:56 pm 15:56 Mostly Cloudy 85 29.4 75 23.9 72 72 SW 12 19 29.89 1012 10 16.0934 0 0.0254
4:56 pm 16:56 Partly Cloudy 85 29.4 74 23.3 70 70 SW 13 20 29.87 1012 10 16.0934 0 0
5:56 pm 17:56 Mostly Sunny 84 28.9 72 22.2 67 67 SW 9 15 29.87 1012 10 16.0934 0 0
6:56 pm 18:56 Mostly Cloudy 82 27.8 71 21.7 69 69 SW 10 17 29.88 1012 10 16.0934 0 0
7:56 pm 19:56 Mostly Cloudy with Light Rain 73 22.8 71 21.7 94 94 WSW 13 20 29.91 1013 10 16.0934 0.02 0.508
8:56 pm 20:56 Mostly Cloudy with Light Rain 73 22.8 72 22.2 96 96 W 8 13 29.93 1013 10 16.0934 0.04 1.016
9:56 pm 21:56 Cloudy with Light Rain 73 22.8 72 22.2 96 96 W 5 7 29.93 1014 10 16.0934 0.01 0.254
10:56 pm 22:56 Cloudy with Rain 72 22.2 71 21.7 97 97 WNW 7 11 29.95 1014 10 16.0934 0.08 2.032
11:23 pm 23:23 Cloudy with Rain 72 22 72 22 100 100 WSW 5 7 29.97 1015 10 16.0934 0.06 1.524
11:56 pm 23:56 Cloudy with Heavy Rain 71 21.7 70 21.1 96 96 SW 6 9 29.98 1015 4 6.43736 0.35 8.89

Powered by AerisWeather